Zurück zum Katalog

STARLINK-3374

AktivKommunikationVLEO
NORAD 51112·PAYLOAD·🇺🇸 United States

Gestartet Jan 19, 2022 von Cape Canaveral Space Force Station

Loading…

Nächste Überflüge (nächste 24 Stunden)

TLE

AktuellSource: CelesTrak SupGP

Epoche: Sep 14, 2026, 13:12 UTC

1 51112C 22005J   26257.55048611  .00044181  00000+0  13056-2 0  2572
2 51112  53.1574 153.5957 0001244  97.9431 300.9896 15.34361093    17

Verfolge STARLINK-3374 in Echtzeit mit AllMySat

Download on the App Store